Regional Weather Roundup
Issued by NWS State College, PA

Home | Current Version | Previous Version | Graphics & Text | Print | Product List | Glossary Off
Versions: 1 2 3 4 5 6 7 8 9 10 11 12 13 14 15 16 17 18 19 20 21 22 23 24 25 26 27 28 29 30 31 32 33 34 35 36 37 38 39 40 41 42 43 44 45 46 47 48 49 50

000
ASUS41 KCTP 211810
RWRCTP

REGIONAL WEATHER ROUNDUP
NATIONAL WEATHER SERVICE STATE COLLEGE PA
100 PM EST WED FEB 21 2018

Note: "fair" indicates few or no clouds below 12,000 feet with no
significant weather and/or obstructions to visibility.

* = STATION THAT DOES NOT REPORT PRECIPITATION /E.G. RAIN...SNOW...ETC/
    THUNDER OR FOG.

PAZ002>004-007>009-013>016-020>023-029>032-211900-
WESTERN PENNSYLVANIA

CITY           SKY/WX    TMP DP  RH WIND       PRES   REMARKS
ERIE           MIX PCPN  37  34  89 W9        30.42R VSB 1
MEADVILLE      LGT RAIN  38  38 100 NW10      30.38R FOG
FRANKLIN*      LGT RAIN  47  46  97 NW13      30.34R FOG
NEW CASTLE     LGT RAIN  46  46 100 N12G18    30.37R
BEAVER COUNTY  DRIZZLE   55  54  94 NW6       30.32R
BUTLER*        LGT RAIN  56  52  86 VRB6      30.32R
PITTSBURGH INT DRIZZLE   61  53  75 NW10      30.31R
PITTSBURGH     CLOUDY    60  52  74 NW16G26   30.29R
INDIANA*       CLOUDY    63  59  88 NW12G20   30.31R
LATROBE        LGT RAIN  72  57  60 W12G17    30.26S
WASHINGTON CO* CLOUDY    61  52  72 NW13G26   30.34R
$$

PAZ004>006-010>012-017>019-024>028-033>037-041-042-045-046-049>053-211900-
CENTRAL PENNSYLVANIA

CITY           SKY/WX    TMP DP  RH WIND       PRES   REMARKS
BRADFORD       LGT RAIN  54  53  97 NW8       30.28R FOG
DUBOIS         CLOUDY    54  50  86 NW6       30.28R
CLEARFIELD     CLOUDY    68  56  65 W13G23    30.24R
JOHNSTOWN      PTSUNNY   71  56  58 W16G38    30.25S
ALTOONA        PTSUNNY   75  55  49 W18G31    30.24F
STATE COLLEGE  CLOUDY    72  55  56 SW9       30.22F
WILLIAMSPORT   CLOUDY    61  52  72 W8        30.20S
SELINSGROVE    FAIR      76  56  49 VRB6      30.20F
FT INDIANTOWN  MOSUNNY   71  71  97 SW3       30.23F
CAPITAL CITY   FAIR      82  58  43 S10       30.22F
HARRISBURG     FAIR      75  57  53 S13G23    30.22F
YORK           FAIR      78  60  53 SW15G23   30.24F
$$

PAZ038>040-043-044-047-048-054-055-060>062-067>071-211900-
EASTERN PENNSYLVANIA

CITY           SKY/WX    TMP DP  RH WIND       PRES   REMARKS
SCRANTON       FAIR      74  55  51 SW14      30.20F
MOUNT POCONO   PTSUNNY   69  55  60 SW15G21   30.25F
ALLENTOWN      FAIR      75  58  55 W10       30.24F
QUAKERTOWN*    PTCLDY    75  61  60 SW10G20   30.25F
READING        FAIR      78  61  55 SW16G22   30.23F
LANCASTER      PTSUNNY   80  59  48 SW12      30.24F
COATESVILLE    FAIR      73 -36   1 S9        30.29F
POTTSTOWN      FAIR      73  59  61 S9        30.26F
BLUE BELL      PTSUNNY   72  61  68 SW13G20   30.27F
DOYLESTOWN     FAIR      74  60  61 SW13G22   30.25F
WILLOW GROVE   NOT AVBL
NORTH PHILA    FAIR      75  61  61 SW15G26   30.27F
PHILADELPHIA   PTSUNNY   74  60  61 SW17G26   30.28F
$$




USA.gov is the U.S. government's official web portal to all federal, state and local government web resources and services.